Wind_Speed
102 101 101 100 100 99 98 97 97 96 95 95 94 93 92 91 91 90 89 88 87 86 86 85 84 84 83 82 81 80 80 79 78 77 76 75 74 72 71 70 69 68 67 67 66 65 64 63 62 61 60 60 59 58 57 57 56 56 55 54 53 53 52 51 50 48 47 46 45 44 42 41 40 40 39 38 38 37 37 37 36 36 36 35 34 34
101 100 100 99 98 98 97 97 96 95 94 94 93 92 92 91 90 89 88 87 86 85 85 84 83 83 82 81 80 80 79 78 77 76 74 73 72 70 69 69 68 67 66 65 64 63 62 61 61 60 59 58 57 56 56 55 54 54 53 52 52 51 50 49 48 47 46 44 43 42 41 40 40 39 38 38 38 37 37 36 36 36 35 34 34 33
100 99 99 98 97 97 96 96 95 94 93 93 92 92 91 90 89 88 87 86 85 85 84 83 82 82 81 80 79 78 77 76 75 74 72 71 70 69 68 67 66 65 64 64 63 62 61 60 59 58 57 56 55 55 54 53 53 52 51 50 50 49 48 47 46 45 44 43 42 41 40 40 39 39 38 38 37 37 37 36 36 35 35 34 33 33
98 98 97 97 96 96 95 95 94 93 93 92 91 91 90 89 88 87 86 85 85 84 83 82 81 80 80 79 78 77 76 74 73 72 70 69 68 67 66 65 64 64 63 62 61 60 59 58 57 56 55 54 54 53 52 52 51 50 49 49 48 47 46 45 45 44 43 42 41 41 40 39 39 38 38 38 37 37 36 36 35 35 34 34 33 32
97 97 96 96 95 95 94 94 93 92 91 91 90 89 89 88 87 86 85 85 84 83 82 81 80 79 78 77 76 75 74 72 71 70 69 67 66 66 65 64 63 62 61 60 59 58 57 56 55 55 54 53 52 52 51 50 49 49 48 47 46 46 45 44 43 42 42 41 40 40 39 39 39 38 38 37 37 36 36 35 35 34 34 33 33 32
96 96 95 95 94 94 93 93 92 91 90 90 89 88 87 87 86 85 84 83 82 82 80 79 78 77 76 75 74 73 72 70 69 68 67 66 65 64 63 62 61 60 59 58 57 56 55 55 54 53 52 52 51 50 50 49 48 47 46 46 45 44 43 43 42 41 41 40 39 39 39 38 38 38 37 37 36 36 35 35 34 34 33 33 32 32
95 95 94 94 93 93 92 91 91 90 89 88 88 87 86 85 84 83 83 82 81 80 79 78 77 75 74 73 72 71 70 68 67 66 65 64 64 63 62 61 60 59 58 57 56 55 54 53 52 51 51 50 49 49 48 47 47 46 45 44 44 43 42 42 41 40 40 39 39 38 38 37 37 37 36 36 36 35 35 34 34 33 33 32 32 32
95 94 93 92 92 91 91 90 89 88 87 87 86 85 84 84 83 82 81 80 79 78 77 76 75 73 72 71 70 69 68 67 66 65 64 63 62 61 60 59 58 57 56 55 54 53 52 51 51 50 49 49 48 47 47 46 45 44 44 43 43 42 41 41 40 39 39 38 38 37 37 37 36 36 36 35 35 34 34 34 33 33 32 32 32 32
93 93 92 91 90 89 89 89 88 87 86 85 84 83 82 82 81 80 79 78 77 76 75 73 73 71 70 69 68 67 66 65 64 63 62 61 60 59 58 57 56 55 54 53 52 51 51 50 49 49 48 47 47 46 45 45 44 43 43 42 42 41 40 40 39 39 38 38 37 37 36 36 35 35 35 34 34 34 33 33 33 33 32 32 32 31
92 91 91 90 89 88 87 86 86 85 84 83 82 81 80 80 79 78 77 76 75 74 72 71 70 69 68 67 66 65 64 63 63 62 61 60 59 58 57 56 55 54 53 52 51 50 49 48 48 47 47 46 45 45 44 43 43 42 42 41 41 40 40 39 39 38 37 37 37 36 36 35 35 35 34 34 34 33 33 33 33 32 32 32 32 32
91 90 89 88 87 86 85 84 83 83 82 81 80 79 78 78 77 76 75 74 73 72 71 69 68 67 66 66 65 64 63 62 61 60 59 58 57 56 55 54 53 52 51 50 49 48 48 47 46 46 45 45 44 44 43 42 42 41 41 40 40 39 39 38 38 38 37 37 36 36 36 35 35 34 34 34 34 33 33 33 33 33 32 32 32 32
88 88 87 86 85 84 83 82 81 81 80 79 78 77 77 76 74 73 72 72 71 70 69 68 67 66 64 64 63 62 61 60 59 59 58 57 56 54 53 52 51 50 50 49 48 47 46 46 45 45 44 44 43 42 42 41 41 40 40 39 39 39 38 38 37 37 37 36 36 36 36 35 35 35 34 34 34 34 34 33 33 33 33 33 33 33
86 85 84 83 83 82 81 80 79 78 78 77 76 75 74 74 72 71 70 70 69 68 67 66 65 64 63 62 61 60 60 59 58 57 56 55 54 53 52 51 50 49 48 47 47 46 45 44 44 44 43 42 42 41 41 40 40 39 39 39 38 38 38 37 37 37 36 36 36 36 36 35 35 35 35 35 35 34 34 34 34 34 34 34 34 34
84 83 82 81 81 80 79 78 77 76 76 75 74 73 72 71 70 69 69 68 67 66 65 64 63 62 62 61 60 59 58 57 56 56 55 54 52 51 50 49 48 47 47 46 45 45 44 43 43 42 42 41 41 40 40 39 39 39 38 38 37 37 37 37 36 36 36 36 36 36 35 35 35 35 35 35 35 35 35 35 35 35 35 35 35 35
82 81 80 79 78 78 77 76 75 74 73 72 71 71 70 69 68 68 67 66 65 64 63 62 62 61 60 59 58 57 56 56 55 54 53 52 51 50 48 48 47 46 45 45 44 44 43 42 42 41 41 40 40 39 39 38 38 38 38 37 37 37 36 36 36 36 36 35 35 35 35 35 35 35 35 35 35 36 36 36 36 36 36 36 36 36
80 79 78 77 76 76 75 74 73 72 71 70 69 69 68 67 67 66 65 64 63 62 61 61 60 59 59 58 57 56 55 54 53 53 52 51 50 48 47 46 46 45 44 44 43 43 42 42 41 41 40 40 39 39 38 38 37 37 37 37 36 36 36 36 36 35 35 35 35 35 35 35 35 35 35 36 36 36 36 36 36 37 37 37 37 37
77 76 76 75 74 73 73 72 71 70 69 68 68 67 66 65 65 64 63 62 61 61 60 59 58 58 57 57 56 54 53 53 52 51 50 49 48 47 46 45 44 44 43 43 42 42 41 41 40 40 40 39 39 38 38 37 37 37 37 36 36 36 36 35 35 35 35 35 35 35 35 35 36 36 36 36 36 36 37 37 37 37 37 38 38 38
75 75 74 73 72 71 70 69 69 68 67 66 66 65 64 63 63 62 61 60 60 59 58 58 57 56 56 55 54 53 52 51 50 50 49 48 47 46 45 44 44 43 43 42 42 41 41 40 40 40 39 39 38 38 37 37 37 37 36 36 36 36 36 36 36 36 36 36 36 36 36 36 36 36 36 37 37 37 37 37 38 38 38 38 38 39
73 73 72 71 70 69 68 67 67 66 65 65 64 63 62 62 61 60 59 59 58 57 57 56 55 55 54 53 53 52 51 50 49 49 48 47 46 45 44 43 43 42 42 41 41 41 40 40 40 39 39 39 38 38 37 37 37 37 37 36 36 36 36 36 36 36 36 36 36 37 37 37 37 37 37 37 37 38 38 38 38 39 39 39 39 39
71 71 70 69 68 67 66 66 65 64 63 63 62 61 60 60 59 59 58 57 57 56 55 54 54 54 53 52 51 51 50 49 48 47 47 46 45 45 43 42 42 42 41 41 41 40 40 40 40 39 39 39 38 38 37 37 37 37 37 37 37 37 37 37 37 37 37 37 37 37 38 38 38 38 38 38 38 39 39 39 39 39 40 40 40 40
69 69 68 67 66 65 64 64 63 62 61 60 60 59 59 58 58 57 56 56 55 54 54 53 53 52 52 51 50 49 48 47 47 46 46 45 45 44 43 42 41 41 41 40 40 40 40 40 40 39 39 39 38 38 38 37 37 37 37 37 37 37 37 37 37 38 38 38 38 38 38 38 39 39 39 39 39 40 40 40 40 40 40 41 41 41
67 66 66 65 64 63 62 62 61 60 59 59 58 57 57 56 56 55 55 54 53 53 52 52 52 51 51 49 49 48 47 46 46 45 45 44 44 43 42 41 41 41 40 40 40 40 40 40 40 39 39 39 38 38 38 38 38 37 37 37 37 38 38 38 38 38 38 38 39 39 39 39 39 40 40 40 40 40 41 41 41 41 42 42 42 42
65 64 64 63 62 61 60 60 59 58 58 57 56 56 55 55 54 54 53 52 52 51 51 51 51 50 49 48 48 47 46 45 45 44 44 44 43 43 42 41 41 40 40 40 39 39 39 40 40 40 39 39 39 38 38 38 38 38 38 38 38 38 38 39 39 39 39 39 39 40 40 40 40 41 41 41 41 41 42 42 42 42 43 43 43 43
63 62 61 61 60 59 59 58 57 57 56 55 55 54 54 53 53 52 51 51 51 51 51 50 50 49 48 47 47 46 45 45 44 44 43 43 43 42 41 41 40 40 40 39 39 39 39 40 40 40 40 39 39 39 39 38 38 38 38 39 39 39 39 39 39 39 40 40 40 40 41 41 41 41 42 42 42 43 43 43 43 44 44 44 44 44
61 60 60 59 58 58 57 56 56 55 54 54 53 53 52 52 51 51 50 50 50 49 49 49 49 48 48 47 46 46 45 44 44 43 43 42 42 42 41 40 40 40 40 40 39 39 40 40 40 40 40 40 40 39 39 39 39 39 39 39 39 39 40 40 40 40 40 41 41 41 42 42 42 42 43 43 43 44 44 44 45 45 45 45 45 45
59 58 58 57 56 56 55 55 54 53 53 52 51 51 50 50 50 49 49 49 49 48 48 48 48 48 47 46 46 45 45 44 43 43 42 42 42 41 41 40 40 40 40 40 39 39 40 40 40 40 40 40 40 40 40 40 40 40 40 40 40 40 40 41 41 41 41 41 42 42 42 43 43 43 44 44 44 45 45 45 46 46 46 46 46 46
57 57 56 55 55 54 54 53 52 52 51 50 50 49 49 49 48 48 48 48 48 47 47 47 47 47 47 46 46 45 45 44 43 43 42 42 42 41 41 40 40 40 40 40 40 40 40 40 40 40 41 41 41 40 40 40 40 40 40 41 41 41 41 41 42 42 42 42 43 43 43 44 44 44 45 45 46 46 46 47 47 47 47 47 47 47
55 55 54 54 53 53 52 52 51 50 49 49 48 48 48 47 47 47 47 47 47 47 47 47 47 47 47 46 46 45 45 44 43 43 42 42 42 41 41 41 40 40 40 40 40 40 40 40 41 41 41 41 41 41 41 41 41 41 41 41 41 42 42 42 42 43 43 43 44 44 44 45 45 45 46 46 47 47 47 48 48 48 48 49 49 49
54 54 53 53 52 51 51 50 49 49 48 48 47 47 47 46 46 46 46 46 46 46 46 47 47 47 47 47 46 46 45 44 44 43 42 42 42 42 41 41 41 40 40 40 40 40 40 40 41 41 41 41 42 42 42 42 42 42 42 42 42 43 43 43 43 44 44 44 45 45 45 46 46 47 47 47 48 48 49 49 49 49 50 50 50 50
53 52 52 51 50 50 49 48 48 47 47 47 46 46 46 46 46 46 46 46 45 45 46 47 47 47 47 47 47 46 45 45 44 43 42 42 42 42 41 41 41 41 41 41 41 41 41 41 41 41 42 42 42 42 42 43 43 43 43 43 43 43 44 44 44 44 45 45 46 46 46 47 47 48 48 48 49 49 50 50 50 51 51 51 51 51
51 51 50 50 49 48 47 47 46 46 46 46 46 46 46 45 45 45 45 45 45 45 46 47 47 47 47 47 47 47 46 45 44 43 43 43 43 42 42 42 41 41 41 41 41 41 41 41 41 41 42 42 43 43 43 43 43 44 44 44 44 44 44 45 45 45 46 46 47 47 47 48 48 49 49 50 50 50 51 51 51 52 52 52 52 52
50 49 49 48 47 47 46 46 45 45 45 45 45 45 45 45 45 45 45 45 45 45 46 47 47 48 48 47 47 47 47 46 45 44 43 43 43 43 42 42 42 42 41 41 41 42 42 42 42 42 42 43 43 44 44 44 44 44 45 45 45 45 45 46 46 46 47 47 47 48 48 49 49 50 50 51 51 52 52 52 53 53 53 53 53 53
48 48 47 46 46 45 45 45 44 44 44 44 44 45 45 45 45 45 45 45 45 46 46 47 47 48 48 48 48 47 47 46 45 45 44 44 44 43 43 42 42 42 42 42 42 42 42 43 43 43 43 43 44 44 44 44 45 45 45 46 46 46 46 46 47 47 47 48 48 49 49 50 50 51 51 52 52 53 53 53 54 54 54 54 54 54
47 46 46 45 44 44 44 44 43 43 44 44 44 44 45 45 45 45 45 45 45 46 47 47 48 48 48 49 49 48 48 47 46 45 44 44 44 44 43 43 43 43 43 43 43 43 43 43 43 44 44 44 44 45 45 45 45 45 46 46 46 47 47 47 48 48 48 49 49 50 50 51 51 52 52 53 53 54 54 54 55 55 55 55 55 55
45 45 44 44 43 43 43 43 43 43 43 44 44 44 45 45 45 45 45 46 46 47 47 48 48 48 49 49 49 49 49 48 47 46 45 45 45 45 44 44 44 44 44 44 44 44 44 44 44 44 45 45 45 46 45 46 46 46 46 47 47 47 48 48 48 49 49 50 50 50 51 51 52 53 53 54 54 55 55 55 55 56 56 56 56 56
44 44 43 43 42 42 42 42 42 43 43 44 44 45 45 45 45 46 46 46 47 47 48 48 49 49 49 49 50 50 49 49 48 47 46 46 45 45 45 45 45 44 45 45 44 44 45 45 45 45 45 46 46 46 46 46 46 47 47 47 48 48 48 49 49 49 50 50 51 51 52 52 53 53 54 55 55 56 56 56 56 57 57 57 57 57
43 43 42 42 42 41 41 42 42 43 44 44 45 45 46 46 46 46 47 47 48 48 48 49 49 50 50 50 50 50 50 49 49 48 47 46 46 46 46 46 45 45 45 45 45 45 45 45 46 46 46 46 47 47 47 47 47 47 48 48 48 49 49 50 50 50 50 51 52 52 52 53 54 54 55 56 56 56 57 57 57 57 58 58 58 58
42 42 42 41 41 41 41 42 42 43 44 45 45 46 46 46 47 47 47 48 48 49 49 50 50 50 51 51 51 51 51 50 49 49 48 47 47 46 46 46 46 46 46 46 46 46 46 46 46 47 47 47 47 48 48 48 48 48 48 49 49 49 50 50 50 51 51 52 52 53 53 54 54 55 56 56 57 57 57 58 58 58 58 58 58 58
41 41 41 41 41 41 41 42 43 44 45 46 46 46 47 47 47 48 48 49 49 50 50 50 51 51 51 51 51 51 51 51 50 49 49 48 47 47 47 47 47 47 47 47 47 47 47 47 47 47 47 48 48 48 48 48 49 49 49 49 50 50 50 51 51 51 52 52 53 53 54 55 55 56 56 57 57 58 58 58 59 59 59 59 59 59
41 41 41 41 41 41 42 43 44 45 46 46 47 47 48 48 48 49 49 50 50 51 51 51 51 52 52 52 52 52 52 51 51 50 49 49 48 48 48 48 48 48 47 47 47 47 47 48 48 48 48 48 48 48 48 49 49 49 50 50 51 51 51 51 51 52 52 53 53 54 55 55 56 56 57 58 58 58 59 59 59 59 59 59 59 59
40 40 41 41 42 42 43 44 45 46 46 47 48 48 49 49 49 50 50 51 51 52 52 52 52 53 53 53 53 53 52 52 51 51 50 50 49 49 48 48 48 48 48 48 48 48 48 48 48 48 48 48 49 49 49 49 49 49 50 51 51 52 52 52 52 52 53 53 54 54 55 56 56 57 58 58 59 59 59 60 60 60 60 60 59 60
40 41 41 42 43 43 44 45 46 47 48 48 49 49 50 50 51 51 52 52 52 53 53 53 53 53 54 54 53 53 53 52 52 51 51 50 50 49 49 49 49 48 48 49 49 49 49 49 49 49 49 49 49 49 49 49 49 49 50 51 52 52 53 53 53 53 53 54 55 55 56 56 57 58 58 59 59 60 60 60 60 60 60 60 60 60
41 42 42 43 44 45 45 46 47 48 49 49 50 50 51 51 52 52 53 53 54 54 54 54 54 54 54 54 54 54 53 53 52 52 51 51 50 50 50 49 49 49 49 49 49 49 49 49 50 50 50 50 50 50 49 49 49 49 50 51 52 53 53 53 53 54 54 55 55 56 56 57 58 58 59 59 60 60 60 60 60 60 60 60 60 60
43 43 44 45 45 46 47 48 48 49 50 50 51 51 52 52 52 53 53 54 54 55 55 55 55 55 55 55 55 54 54 53 52 52 51 51 51 50 50 50 50 49 49 50 50 50 50 50 50 50 50 50 50 50 50 50 50 50 51 51 52 53 53 54 54 54 55 55 56 57 57 58 58 59 60 60 60 61 61 61 61 61 60 60 60 60
44 45 45 46 47 47 48 49 50 50 51 51 52 52 53 53 53 54 54 55 55 56 56 56 56 56 56 56 55 54 54 53 53 52 52 51 51 51 50 50 50 50 50 50 50 50 51 51 51 51 51 51 51 51 50 50 50 50 51 52 52 53 53 54 54 55 55 56 57 57 58 58 59 60 60 61 61 61 61 61 61 61 61 61 61 61
46 46 47 48 48 49 50 50 51 51 52 52 53 54 54 54 54 55 55 56 56 57 57 57 57 57 56 56 55 54 54 53 53 52 52 52 51 51 51 51 51 51 50 51 51 51 51 51 52 52 52 52 52 51 51 51 51 51 51 52 53 53 54 54 54 55 56 56 57 58 58 59 60 60 61 61 61 62 61 61 61 61 61 61 61 61
47 48 48 49 50 50 51 51 52 53 53 54 54 55 55 55 56 56 56 57 57 57 58 58 57 57 57 56 55 54 54 53 53 52 52 52 52 51 51 51 51 51 51 51 51 51 52 52 52 52 52 52 52 52 51 51 51 52 52 52 53 53 54 54 55 55 56 57 58 58 59 60 60 61 61 62 62 62 62 62 61 61 61 61 61 61
49 50 50 51 51 52 52 53 53 54 55 55 56 56 56 56 57 57 58 58 58 58 58 58 58 57 57 56 55 54 53 53 52 52 52 52 52 52 52 52 52 52 51 52 52 52 52 52 52 52 52 52 52 52 52 52 52 52 53 53 53 54 54 55 55 56 56 57 58 59 59 60 60 61 62 62 62 62 62 62 62 61 61 61 61 61
51 51 52 52 53 54 54 54 55 55 56 57 57 57 57 58 58 58 59 59 59 59 59 59 58 58 57 56 55 54 53 53 52 52 52 52 52 52 52 52 52 52 52 52 52 52 52 53 53 52 52 52 52 52 53 52 53 53 53 54 54 54 55 55 56 56 57 58 58 59 60 60 61 61 62 62 63 63 63 62 62 61 61 61 61 61
52 53 54 54 55 55 56 56 56 57 57 58 58 58 59 59 59 59 60 60 60 60 60 59 58 58 57 56 55 54 53 53 52 52 52 52 52 52 52 52 52 52 52 52 53 53 53 53 53 53 53 52 52 53 53 53 53 54 54 54 55 55 55 56 57 57 58 58 59 60 60 61 61 62 62 62 63 63 63 63 62 62 61 61 61 61
54 55 55 56 56 57 57 58 58 58 59 59 59 60 60 60 60 61 61 61 61 60 60 59 58 58 57 56 55 54 53 53 52 52 52 52 52 53 53 52 52 52 52 53 53 53 54 54 54 54 53 52 52 52 53 54 54 55 55 55 55 56 56 57 57 58 58 59 60 60 61 61 61 62 62 63 63 63 64 63 63 62 61 61 61 61
Wind_Direction
293 294 294 294 294 295 295 295 296 296 296 297 297 297 297 297 298 298 298 298 298 298 298 299 299 299 299 299 299 299 299 300 300 300 301 301 301 301 301 301 302 302 302 302 303 303 303 303 303 303 303 303 303 303 303 303 304 304 304 304 304 304 304 303 303 303 302 301 301 300 299 298 297 296 295 295 294 293 293 293 293 293 292 292 291 290
293 294 294 294 294 295 295 295 295 296 296 296 296 297 297 297 297 297 298 298 298 298 298 298 298 298 298 298 299 299 299 299 300 300 300 301 301 301 301 301 302 302 302 302 303 303 303 303 303 303 303 303 303 303 303 303 303 304 304 304 304 304 303 303 303 302 301 300 300 299 298 297 296 295 294 294 293 293 293 293 292 292 292 291 290 289
293 293 294 294 294 294 295 295 295 295 296 296 296 296 296 297 297 297 297 297 297 297 297 297 297 298 298 298 298 298 299 299 300 300 300 300 301 301 301 301 301 302 302 302 302 302 303 303 302 302 302 302 303 303 303 303 303 303 303 304 303 303 303 303 302 302 301 300 299 298 297 296 295 294 293 293 293 292 292 292 292 292 291 291 290 289
293 293 293 293 294 294 294 294 295 295 295 295 295 296 296 296 296 296 296 296 296 297 297 297 297 297 297 298 298 298 299 299 300 300 300 300 300 301 301 301 301 302 302 302 302 302 302 302 302 302 302 302 302 302 302 303 303 303 303 303 303 303 303 303 302 301 300 299 298 297 296 295 295 294 293 293 293 292 292 292 291 291 290 290 289 288
292 292 293 293 293 293 294 294 294 294 295 295 295 295 295 296 296 296 296 296 296 296 296 297 297 297 297 297 298 298 299 299 299 300 300 300 300 300 301 301 301 301 302 302 302 302 302 302 302 302 302 302 302 302 302 302 303 303 303 303 303 303 303 303 302 301 300 299 298 297 296 295 295 294 293 293 293 292 292 291 291 290 290 289 288 287
292 292 292 292 293 293 293 293 294 294 294 294 294 295 295 295 295 295 295 295 296 296 296 296 296 297 297 297 297 298 298 299 299 299 300 300 300 300 301 301 301 301 301 301 301 301 301 301 301 301 301 301 302 302 302 302 303 303 303 303 303 303 303 303 302 301 301 300 299 298 297 296 295 294 294 293 293 292 292 291 291 290 289 289 288 287
291 291 292 292 292 292 293 293 293 293 293 294 294 294 294 294 294 294 295 295 295 295 296 296 296 296 296 297 297 298 298 298 299 299 299 299 300 300 300 301 301 301 301 301 301 301 301 301 301 301 301 301 301 302 302 302 303 303 303 303 303 303 303 303 302 302 301 300 299 298 297 296 296 295 294 294 293 293 292 291 291 290 289 289 288 287
291 291 291 291 292 292 292 292 293 293 293 293 293 293 293 294 294 294 294 294 294 295 295 295 296 296 296 296 297 297 298 298 298 299 299 299 299 300 300 300 301 301 301 300 300 300 300 300 300 301 301 301 301 301 302 302 302 303 303 303 303 303 303 303 302 302 301 300 300 299 298 297 296 296 295 295 294 293 293 292 291 291 290 289 288 287
290 291 291 291 291 291 292 292 292 292 292 292 292 293 293 293 293 293 293 294 294 294 294 295 295 295 296 296 296 297 297 298 298 298 299 299 299 300 300 300 300 300 300 300 300 300 300 300 300 300 300 300 301 301 301 302 302 302 302 303 303 303 303 303 302 302 301 301 300 299 299 298 297 297 296 296 295 294 294 293 292 292 291 289 288 287
290 290 291 291 291 291 291 291 291 291 292 292 292 292 292 292 292 292 293 293 293 294 294 294 294 295 295 296 296 296 297 297 297 298 298 299 299 299 300 300 300 300 299 299 299 299 299 299 299 300 299 300 300 300 301 301 301 302 302 302 302 302 302 302 302 302 301 301 300 300 299 299 298 298 297 297 296 295 295 294 293 292 291 290 289 288
290 290 290 290 290 290 290 290 290 291 291 291 291 291 291 291 292 292 292 292 293 293 293 293 294 294 295 295 296 296 296 297 297 297 298 298 299 299 299 299 299 299 299 299 299 299 299 299 299 299 299 299 299 300 300 301 301 301 302 302 302 302 302 302 302 301 301 301 301 300 300 299 299 298 298 297 297 296 295 294 294 293 292 291 290 289
289 289 289 289 290 290 290 290 290 290 290 290 290 290 291 291 291 291 291 292 292 292 293 293 293 294 294 295 295 296 296 296 297 297 298 298 298 298 298 298 298 298 298 298 298 298 298 298 298 298 298 299 299 299 300 301 301 301 302 302 302 302 302 302 302 302 301 301 301 300 300 299 299 298 298 298 297 296 296 295 294 293 293 292 291 290
289 289 289 289 289 289 289 289 289 289 289 289 289 289 290 290 290 290 291 291 291 292 292 293 293 293 294 294 295 295 296 296 297 297 297 298 298 298 298 298 298 297 297 297 297 297 297 297 297 298 298 298 299 299 300 300 301 301 302 302 302 302 302 302 302 302 301 301 301 301 300 300 299 299 298 298 297 297 296 295 295 294 294 293 292 292
288 288 288 288 288 288 288 288 288 288 288 289 289 289 289 289 289 290 290 290 291 291 292 292 293 293 294 294 294 295 295 296 296 297 297 297 297 297 297 297 297 297 297 297 297 297 297 297 297 297 297 298 298 299 300 300 301 301 301 302 302 302 302 302 302 302 302 301 301 301 301 300 300 300 299 299 298 298 297 297 296 296 295 294 294 293
287 287 287 287 287 287 287 287 288 288 288 288 288 288 288 289 289 289 290 290 290 291 291 292 292 293 293 293 294 295 295 295 296 296 296 296 296 296 297 297 296 296 296 296 296 296 296 296 296 296 297 297 298 299 300 300 300 301 301 301 301 302 302 302 302 302 302 302 302 301 301 301 301 300 300 300 299 299 299 298 298 297 297 296 295 294
287 286 286 286 287 287 287 287 287 287 287 287 287 287 288 288 288 289 289 290 290 290 291 291 292 292 293 293 294 294 295 295 295 295 296 296 296 296 296 296 296 296 295 295 295 295 296 296 296 296 297 297 298 299 299 300 300 300 300 301 301 301 302 302 302 302 302 302 302 302 302 302 302 302 301 301 301 301 300 300 299 299 298 297 296 295
286 286 286 286 286 286 286 286 286 286 286 286 287 287 287 287 288 288 289 289 289 290 290 291 291 292 292 293 293 294 294 295 295 295 295 295 295 296 296 296 295 295 295 295 295 295 295 296 296 296 296 297 298 298 299 299 299 300 300 300 301 301 301 301 302 302 302 302 302 303 303 303 303 303 303 303 303 302 302 302 301 300 299 299 298 296
285 285 285 285 285 285 285 285 285 285 286 286 286 286 287 287 287 288 288 288 289 289 290 290 291 291 291 292 293 294 294 294 294 295 295 295 295 295 296 295 295 295 294 294 294 295 295 295 295 296 296 297 297 298 298 299 299 299 300 300 300 301 301 301 302 302 302 302 303 303 303 303 303 304 304 304 304 303 303 303 302 301 301 300 299 298
284 284 284 284 284 285 285 285 285 285 285 285 285 286 286 286 287 287 287 288 288 289 289 289 290 290 291 292 293 293 294 294 294 294 294 295 295 295 295 295 295 294 294 294 294 295 295 295 295 295 296 296 297 297 298 298 299 299 299 300 300 300 301 301 302 302 302 303 303 303 303 304 304 304 304 304 304 304 304 304 303 302 302 301 300 298
283 283 283 284 284 284 284 284 284 284 284 284 285 285 285 286 286 286 287 287 288 288 288 289 289 290 291 292 292 293 294 294 294 294 294 295 295 295 295 295 294 294 294 294 294 294 294 295 295 295 295 296 296 297 297 298 298 299 299 300 300 301 301 301 302 302 302 303 303 303 303 304 304 304 304 305 304 305 304 304 304 303 302 301 300 299
283 283 283 283 283 283 283 283 283 283 283 284 284 284 285 285 285 286 286 287 287 287 288 288 289 289 290 291 292 293 293 294 294 294 294 294 294 294 294 294 294 294 293 294 294 294 294 294 294 294 295 295 296 296 297 297 298 298 299 299 300 300 301 301 302 302 302 303 303 303 303 304 304 304 304 304 305 305 305 304 304 303 303 302 301 300
282 282 282 282 282 282 282 282 282 282 283 283 283 283 284 284 285 285 286 286 287 287 287 288 289 289 290 291 292 293 293 294 294 294 294 294 294 294 294 294 293 293 293 293 293 293 293 293 293 294 294 295 295 296 296 297 298 298 299 299 300 300 301 301 302 302 302 302 303 303 303 303 304 304 304 304 305 305 305 304 304 304 303 302 301 300
281 281 281 281 281 281 281 281 281 282 282 282 282 283 283 284 284 285 285 286 286 287 287 288 289 290 290 291 292 292 293 293 293 293 293 293 293 293 294 293 293 292 292 292 292 292 292 292 293 293 293 294 294 295 296 296 297 298 298 299 299 300 300 301 301 301 302 302 303 303 303 303 304 304 304 304 304 305 305 304 304 304 304 303 302 301
280 280 280 280 280 280 280 281 281 281 281 282 282 282 283 283 284 284 285 286 286 287 287 288 289 290 290 291 292 292 293 293 293 293 293 293 293 293 293 292 292 291 291 291 291 291 291 292 292 292 293 293 294 294 295 296 296 297 297 298 298 299 300 300 301 301 301 302 302 303 303 303 304 304 304 304 304 305 305 305 305 304 304 304 303 302
279 279 279 279 279 279 280 280 280 280 281 281 281 282 282 283 283 284 285 285 286 286 287 288 289 289 290 291 292 292 292 293 293 293 292 292 292 292 292 292 291 291 290 290 290 290 291 291 291 291 292 292 293 294 294 295 295 296 297 297 298 298 299 299 300 300 301 301 302 302 303 303 304 304 304 304 305 305 305 305 305 305 305 304 304 303
278 278 278 278 278 279 279 279 279 280 280 280 281 281 282 282 283 284 284 285 285 286 287 287 288 289 290 291 292 292 292 292 292 292 292 292 292 292 291 291 291 290 290 290 290 290 290 290 290 291 291 292 292 293 293 294 295 295 296 296 297 297 298 299 299 300 300 301 301 302 303 303 304 304 304 304 305 305 305 305 305 305 305 305 305 304
277 277 278 278 278 278 278 278 279 279 279 280 280 280 281 282 282 283 283 284 285 286 287 287 288 289 290 291 292 292 293 293 292 292 292 292 292 291 291 291 290 290 289 289 289 289 289 290 290 290 291 291 292 292 293 293 294 294 295 295 296 297 297 298 298 299 300 300 301 302 302 303 304 304 304 305 305 305 305 306 306 306 306 306 305 305
277 277 277 277 277 277 278 278 278 278 278 279 279 280 280 281 281 282 283 284 285 286 286 287 288 290 291 292 292 292 293 292 292 292 292 292 291 291 291 290 290 289 289 289 288 288 289 289 289 290 290 291 291 292 292 293 293 294 294 295 295 296 296 297 298 298 299 300 300 301 302 303 303 304 304 305 305 305 306 306 306 306 306 306 306 305
276 276 276 276 276 276 277 277 277 277 278 278 278 279 280 280 281 282 283 284 285 286 286 288 289 290 291 292 292 292 292 292 292 292 292 292 291 291 290 290 289 289 288 288 288 288 288 288 289 289 290 290 291 291 292 292 293 293 294 294 295 295 296 296 297 298 299 299 300 301 302 303 303 304 305 305 305 306 306 306 306 307 307 307 307 306
275 275 275 275 275 276 276 276 276 276 277 277 278 278 279 280 280 281 283 284 285 286 287 288 289 291 292 292 293 293 292 292 292 292 292 292 291 291 290 290 289 289 288 288 288 288 288 288 289 289 290 290 291 291 292 292 293 293 293 294 294 295 295 296 296 297 298 299 300 301 302 302 303 304 304 305 305 306 306 306 307 307 307 307 307 307
274 274 274 274 275 275 275 275 275 276 276 277 277 278 279 280 280 281 282 284 285 286 287 289 290 291 292 292 293 292 292 292 292 292 292 291 291 290 290 290 289 289 288 288 288 288 288 288 289 289 290 290 291 291 291 292 292 293 293 294 294 294 295 296 296 297 298 299 299 300 301 302 303 304 304 305 306 306 306 307 307 307 308 308 308 307
273 273 274 274 274 274 274 275 275 276 276 277 277 278 279 280 280 281 282 284 285 286 288 289 290 291 291 292 292 292 292 292 292 292 292 291 291 291 290 290 289 289 288 288 288 288 288 289 289 289 289 290 290 291 291 292 292 293 293 293 294 294 295 296 296 297 298 298 299 300 301 302 303 304 304 305 306 306 306 307 307 308 308 308 308 307
273 273 273 273 273 273 274 274 275 275 276 276 277 278 279 279 280 281 283 284 285 286 288 289 290 291 291 291 291 291 291 291 291 291 291 291 291 291 291 290 290 289 289 288 288 288 288 288 289 289 290 290 290 291 291 292 292 293 293 293 294 294 295 295 296 297 297 298 299 300 301 302 303 304 304 305 306 306 307 307 308 308 308 308 308 308
272 272 272 272 272 273 273 273 274 275 275 276 277 277 278 279 280 282 283 284 285 286 288 289 290 290 291 291 291 291 291 291 291 291 291 291 291 291 291 291 290 290 289 289 288 288 288 288 289 289 290 290 290 291 291 292 292 292 293 293 294 294 295 295 296 297 297 298 299 300 301 302 303 303 304 305 306 306 307 307 308 308 308 308 308 308
270 271 271 271 271 272 272 273 273 274 275 275 276 277 278 279 280 282 283 284 285 287 288 289 289 290 290 291 291 290 290 290 291 291 291 291 291 291 291 291 291 291 290 289 289 289 288 288 288 289 289 290 290 290 291 291 292 292 293 293 294 294 295 295 296 296 297 298 299 300 301 302 303 303 304 305 306 306 307 307 308 308 309 309 309 308
270 270 270 270 270 271 271 272 272 273 274 275 276 277 278 279 281 282 283 284 286 287 288 289 289 289 290 290 290 290 290 290 290 290 290 291 291 291 291 291 291 291 290 290 289 289 289 288 289 289 289 290 290 290 291 291 292 292 293 293 294 294 294 295 296 296 297 298 299 300 301 302 303 303 304 305 306 306 307 307 308 308 309 309 309 308
269 269 269 270 270 270 270 271 272 273 274 275 276 277 278 280 281 282 284 285 286 287 288 289 289 289 289 289 289 289 289 289 289 290 290 290 290 291 291 291 291 291 291 290 290 289 289 289 288 289 289 289 290 290 291 291 292 292 293 293 294 294 294 295 296 296 297 298 299 300 301 302 302 303 304 305 306 306 307 308 308 309 309 309 309 309
268 268 268 269 269 269 270 271 271 272 273 275 276 277 279 280 281 283 284 285 286 287 288 288 289 289 289 289 288 288 288 288 288 289 289 289 289 290 290 291 291 291 290 290 290 289 289 289 289 288 289 289 289 290 290 291 292 292 293 293 293 294 294 295 296 297 297 298 299 300 301 301 302 303 304 305 306 306 307 308 308 309 309 309 309 309
267 267 267 268 268 269 269 270 271 272 274 275 276 277 279 280 282 283 284 285 286 287 288 288 288 288 288 288 288 288 287 287 287 288 288 288 289 289 290 290 290 290 290 290 290 289 289 289 288 288 288 288 289 289 290 291 291 292 293 293 293 294 294 295 296 296 297 298 299 300 300 301 302 303 304 305 306 306 307 308 308 309 309 309 309 309
266 266 267 267 268 269 269 270 271 273 274 275 277 278 279 281 282 283 284 285 286 287 287 288 288 288 288 288 287 287 287 287 286 287 287 287 288 288 289 289 290 290 290 290 289 289 289 289 288 288 288 288 288 289 290 290 291 292 293 293 293 294 294 295 296 297 297 298 299 299 300 301 302 303 304 305 306 306 307 308 308 309 309 309 309 309
265 265 266 267 268 269 270 271 272 273 274 276 277 278 280 281 282 283 285 285 286 287 287 288 288 288 287 287 287 286 286 286 285 285 286 286 287 287 288 289 289 290 290 290 290 289 289 289 289 288 288 288 288 289 289 290 291 292 293 293 293 294 294 295 296 297 297 298 298 299 300 301 302 303 304 305 305 306 307 308 308 309 309 309 309 309
264 265 266 267 268 269 270 271 272 273 275 276 277 278 280 281 283 284 285 286 286 287 287 287 288 287 287 287 286 285 285 285 284 284 285 285 286 287 288 288 289 290 290 290 290 290 290 289 289 289 289 289 289 289 289 290 291 292 292 293 293 294 295 295 296 297 297 298 298 299 300 301 302 303 304 305 305 306 307 308 308 309 309 309 309 309
264 265 266 267 268 269 270 271 272 273 275 276 277 279 280 281 283 284 285 285 286 287 287 287 287 287 287 286 286 285 284 284 284 284 284 284 285 286 287 288 289 290 290 290 291 290 290 290 289 289 289 289 289 289 290 290 291 291 292 292 293 294 294 295 296 297 297 298 298 299 300 301 302 303 304 304 305 306 307 307 308 309 309 309 309 309
264 265 266 267 268 269 270 271 272 273 275 276 277 279 280 281 283 284 284 285 286 286 286 287 287 287 286 286 285 285 284 284 283 283 283 284 285 286 287 288 289 289 290 290 291 291 291 290 290 290 289 289 289 290 290 291 291 291 292 292 293 293 294 295 296 297 297 298 298 299 300 301 302 303 304 304 305 306 307 307 308 309 309 309 309 309
265 266 266 267 268 269 270 271 273 274 275 277 278 279 280 282 282 283 284 285 285 286 286 286 287 286 286 286 285 284 284 283 283 283 283 283 284 285 286 288 288 289 290 290 290 291 291 291 290 290 290 290 290 290 290 291 291 291 291 292 292 293 294 295 296 296 297 298 298 299 300 301 302 303 303 304 305 306 307 307 308 309 309 309 310 310
266 266 267 268 269 270 271 272 274 275 276 277 279 280 281 282 282 283 284 284 285 286 286 286 286 286 286 285 285 284 284 283 282 282 282 283 284 285 286 287 288 289 290 290 290 290 290 290 290 290 290 290 290 290 290 291 291 291 291 292 292 293 294 295 296 296 297 298 298 299 300 301 302 303 303 304 305 306 306 307 308 309 309 309 310 310
267 267 268 269 270 271 272 274 275 276 277 278 279 280 281 282 283 283 284 284 285 285 286 286 286 286 285 285 284 284 283 282 282 282 282 282 283 284 286 287 288 289 289 290 290 290 290 290 290 290 290 290 290 290 290 291 291 291 291 292 292 293 294 295 295 296 297 297 298 299 300 301 302 303 303 304 305 306 306 307 308 309 309 309 310 310
268 269 270 271 272 273 274 275 276 277 278 279 280 281 281 282 283 283 284 284 285 286 286 286 286 286 285 284 284 283 282 282 281 281 281 282 283 284 285 286 287 288 289 289 289 290 290 289 289 289 289 290 290 290 290 291 291 291 291 292 292 293 294 295 295 296 297 297 298 299 300 301 302 302 303 304 305 306 306 307 308 308 309 309 309 310
270 270 271 272 273 274 275 276 277 278 279 279 280 281 281 282 283 283 284 285 285 286 286 286 286 285 285 284 283 283 282 281 281 280 281 281 282 283 284 286 287 288 288 289 289 289 289 289 289 289 289 289 290 290 290 290 291 291 291 292 292 293 294 294 295 296 296 297 298 299 300 301 301 302 303 304 305 305 306 307 308 308 309 309 309 309
271 272 273 273 274 275 276 277 278 278 279 279 280 281 282 282 283 284 284 285 285 286 286 285 285 285 284 283 283 282 281 280 280 280 280 281 282 283 284 285 286 287 288 288 289 289 289 289 288 288 288 289 289 290 290 290 291 291 291 292 293 293 294 294 295 296 296 297 298 299 300 301 301 302 303 304 304 305 306 307 307 308 308 309 309 309
272 273 274 274 275 276 277 277 278 278 279 279 280 281 282 283 283 284 285 285 285 286 285 285 285 284 283 283 282 281 281 280 279 279 279 280 281 282 283 285 286 287 288 288 289 289 289 289 289 288 288 288 289 290 290 290 291 291 292 292 293 293 294 294 295 296 297 297 298 299 300 301 301 302 303 304 304 305 306 306 307 307 308 308 309 309
Height
10570 10568 10566 10565 10563 10561 10559 10557 10556 10555 10552 10551 10550 10548 10546 10545 10544 10543 10541 10540 10538 10537 10535 10533 10531 10530 10528 10526 10525 10523 10522 10520 10518 10517 10515 10513 10511 10509 10507 10505 10503 10501 10499 10497 10495 10493 10491 10490 10488 10486 10484 10482 10480 10478 10476 10475 10473 10471 10470 10468 10466 10465 10463 10462 10460 10459 10458 10456 10455 10454 10453 10452 10451 10450 10450 10449 10448 10447 10446 10446 10445 10444 10443 10443 10442 10441
10564 10562 10560 10559 10558 10556 10553 10550 10550 10549 10547 10545 10543 10542 10541 10540 10538 10537 10536 10535 10533 10531 10530 10528 10526 10525 10523 10521 10520 10518 10516 10515 10513 10512 10510 10508 10506 10505 10502 10500 10498 10496 10494 10493 10491 10489 10487 10485 10483 10481 10480 10478 10476 10475 10473 10471 10470 10468 10466 10465 10463 10461 10460 10458 10457 10456 10455 10453 10452 10451 10450 10449 10448 10448 10446 10446 10445 10445 10444 10443 10442 10441 10441 10440 10440 10439
10558 10556 10554 10553 10552 10550 10546 10545 10544 10543 10541 10540 10538 10536 10535 10534 10532 10531 10530 10529 10527 10526 10525 10523 10521 10520 10518 10516 10515 10513 10511 10510 10508 10506 10505 10503 10501 10500 10498 10495 10493 10491 10490 10488 10486 10485 10483 10481 10480 10478 10476 10474 10473 10471 10469 10468 10466 10465 10463 10461 10460 10458 10457 10455 10454 10453 10451 10450 10449 10448 10447 10446 10445 10445 10444 10443 10442 10441 10441 10440 10440 10439 10438 10438 10437 10436
10552 10550 10548 10547 10545 10543 10541 10540 10538 10537 10536 10535 10533 10531 10530 10528 10526 10525 10524 10523 10521 10520 10519 10517 10516 10514 10512 10511 10509 10508 10506 10505 10503 10501 10500 10498 10496 10495 10493 10491 10489 10487 10485 10484 10482 10480 10478 10477 10475 10473 10472 10470 10469 10467 10466 10464 10463 10461 10460 10458 10456 10455 10454 10453 10451 10450 10448 10447 10446 10445 10444 10443 10442 10441 10441 10440 10440 10439 10438 10438 10437 10436 10436 10435 10435 10434
10546 10545 10543 10541 10539 10537 10535 10535 10533 10532 10531 10529 10528 10526 10524 10523 10521 10520 10518 10517 10516 10515 10513 10512 10510 10509 10507 10505 10504 10502 10501 10500 10498 10496 10495 10493 10491 10490 10488 10486 10485 10483 10481 10480 10478 10476 10475 10473 10471 10470 10468 10466 10465 10463 10462 10461 10460 10458 10456 10455 10453 10452 10451 10450 10448 10446 10445 10445 10443 10442 10441 10440 10440 10438 10438 10437 10436 10436 10435 10435 10434 10433 10433 10432 10431 10431
10540 10539 10537 10535 10533 10531 10530 10529 10528 10528 10525 10523 10521 10520 10518 10517 10515 10514 10512 10511 10510 10508 10508 10506 10505 10503 10502 10500 10498 10497 10496 10495 10493 10491 10490 10488 10486 10485 10483 10482 10480 10478 10477 10475 10473 10472 10470 10468 10467 10466 10464 10463 10461 10460 10458 10457 10456 10455 10453 10452 10450 10449 10448 10446 10445 10444 10443 10441 10440 10439 10438 10437 10436 10436 10435 10434 10433 10433 10433 10432 10431 10431 10430 10430 10429 10428
10533 10532 10531 10530 10528 10526 10525 10523 10523 10521 10520 10517 10515 10514 10513 10511 10510 10508 10506 10505 10505 10503 10502 10501 10500 10498 10496 10495 10493 10492 10491 10490 10488 10487 10485 10483 10482 10480 10479 10477 10476 10475 10473 10471 10470 10468 10466 10465 10463 10461 10460 10459 10458 10456 10455 10454 10453 10451 10450 10449 10447 10446 10445 10443 10442 10441 10440 10438 10437 10436 10435 10435 10433 10433 10432 10431 10431 10430 10430 10429 10428 10428 10428 10427 10426 10426
10526 10525 10525 10523 10522 10520 10519 10518 10516 10515 10513 10511 10510 10508 10507 10505 10504 10503 10501 10500 10499 10498 10496 10495 10494 10493 10491 10490 10489 10487 10486 10485 10483 10482 10481 10479 10478 10476 10475 10473 10471 10470 10468 10467 10465 10464 10463 10461 10460 10458 10456 10455 10454 10453 10451 10450 10450 10448 10447 10446 10444 10443 10441 10440 10439 10438 10436 10436 10435 10433 10433 10431 10431 10430 10429 10428 10428 10427 10426 10426 10426 10425 10425 10424 10423 10423
10521 10519 10518 10517 10516 10515 10513 10511 10510 10508 10508 10506 10504 10503 10501 10500 10498 10497 10496 10495 10493 10493 10491 10490 10489 10488 10486 10485 10484 10483 10481 10480 10479 10478 10476 10475 10473 10472 10470 10469 10468 10466 10465 10463 10461 10460 10458 10457 10456 10455 10453 10452 10451 10450 10448 10447 10446 10445 10444 10443 10441 10440 10439 10438 10436 10435 10434 10433 10431 10431 10430 10429 10428 10427 10426 10426 10425 10425 10424 10423 10423 10422 10421 10421 10421 10420
10515 10513 10512 10510 10510 10509 10508 10505 10503 10502 10502 10500 10499 10497 10496 10495 10493 10491 10490 10489 10488 10488 10486 10485 10484 10483 10481 10480 10480 10478 10477 10476 10475 10473 10472 10471 10469 10468 10466 10465 10463 10462 10460 10459 10458 10456 10455 10453 10452 10451 10450 10448 10447 10446 10445 10445 10443 10442 10441 10440 10438 10437 10436 10435 10433 10432 10431 10430 10429 10428 10427 10426 10425 10424 10423 10423 10422 10421 10421 10420 10420 10419 10418 10418 10418 10418
10508 10507 10506 10504 10503 10502 10501 10500 10498 10496 10496 10495 10493 10491 10490 10489 10488 10486 10485 10484 10483 10482 10481 10480 10479 10478 10477 10476 10475 10474 10473 10471 10470 10469 10468 10466 10465 10464 10463 10461 10460 10458 10456 10455 10454 10453 10451 10450 10449 10448 10446 10445 10444 10443 10442 10441 10440 10439 10438 10436 10435 10434 10433 10431 10430 10430 10428 10427 10426 10425 10424 10423 10422 10421 10420 10420 10419 10418 10418 10417 10416 10416 10416 10415 10415 10415
10501 10500 10500 10498 10496 10496 10495 10493 10492 10491 10490 10489 10487 10486 10485 10483 10483 10481 10480 10479 10478 10477 10476 10475 10475 10473 10473 10471 10470 10469 10468 10467 10466 10465 10463 10462 10461 10460 10459 10457 10456 10454 10453 10451 10450 10449 10448 10446 10445 10444 10443 10442 10441 10440 10439 10438 10437 10436 10435 10433 10432 10431 10430 10429 10428 10426 10425 10424 10423 10422 10421 10420 10419 10418 10418 10417 10416 10415 10415 10414 10413 10413 10413 10412 10411 10411
10495 10495 10493 10492 10491 10490 10489 10488 10486 10486 10484 10483 10482 10481 10479 10478 10478 10476 10475 10474 10473 10472 10471 10470 10470 10468 10468 10467 10466 10465 10463 10462 10461 10460 10459 10458 10457 10456 10455 10453 10452 10450 10449 10448 10446 10445 10444 10443 10442 10441 10440 10438 10438 10437 10436 10435 10434 10433 10431 10430 10430 10428 10427 10426 10425 10423 10422 10421 10420 10419 10418 10417 10416 10415 10415 10414 10413 10412 10411 10411 10410 10410 10409 10409 10408 10408
10489 10488 10487 10486 10485 10483 10483 10482 10481 10480 10478 10477 10476 10475 10474 10473 10472 10471 10470 10469 10468 10468 10467 10466 10465 10464 10463 10463 10461 10461 10460 10458 10457 10456 10455 10454 10453 10452 10451 10450 10448 10446 10445 10444 10443 10442 10441 10440 10438 10438 10436 10435 10435 10434 10433 10432 10431 10430 10429 10428 10426 10425 10424 10423 10422 10421 10420 10418 10417 10416 10415 10414 10413 10413 10411 10411 10410 10409 10408 10408 10407 10406 10406 10405 10405 10405
10483 10481 10481 10480 10478 10478 10477 10476 10475 10474 10473 10472 10471 10470 10469 10468 10467 10466 10466 10465 10463 10463 10462 10461 10460 10459 10458 10458 10458 10456 10456 10454 10453 10451 10450 10450 10449 10448 10447 10446 10444 10443 10442 10441 10440 10438 10438 10436 10435 10434 10433 10433 10431 10431 10430 10429 10428 10427 10426 10425 10423 10423 10421 10420 10419 10418 10417 10416 10415 10413 10413 10411 10410 10410 10408 10408 10407 10406 10405 10405 10404 10403 10403 10402 10401 10401
10476 10476 10475 10473 10473 10472 10471 10470 10470 10469 10468 10466 10466 10465 10464 10463 10462 10461 10461 10460 10459 10458 10457 10456 10455 10455 10454 10454 10453 10453 10451 10450 10448 10448 10446 10445 10445 10444 10443 10442 10440 10439 10438 10437 10436 10435 10434 10433 10432 10431 10430 10429 10428 10428 10427 10426 10425 10424 10423 10422 10421 10420 10419 10418 10416 10415 10414 10413 10412 10411 10410 10408 10408 10406 10406 10405 10404 10403 10402 10401 10400 10400 10399 10398 10398 10397
10470 10470 10468 10468 10467 10466 10466 10465 10464 10463 10462 10461 10460 10460 10459 10458 10457 10456 10456 10455 10454 10453 10453 10452 10451 10450 10449 10449 10448 10448 10448 10446 10445 10443 10443 10441 10440 10440 10440 10438 10436 10435 10434 10433 10432 10431 10430 10429 10428 10427 10426 10426 10425 10425 10424 10423 10422 10421 10420 10419 10418 10417 10416 10415 10414 10413 10411 10410 10409 10408 10407 10406 10405 10404 10403 10401 10401 10400 10399 10398 10397 10396 10396 10395 10395 10394
10464 10463 10463 10462 10461 10461 10460 10460 10459 10458 10457 10456 10455 10455 10454 10453 10453 10452 10451 10450 10450 10449 10448 10448 10447 10446 10446 10445 10443 10443 10444 10443 10441 10439 10438 10437 10436 10436 10435 10435 10433 10431 10430 10430 10428 10428 10426 10426 10425 10424 10423 10423 10422 10421 10420 10420 10419 10418 10417 10416 10415 10414 10413 10412 10411 10410 10408 10408 10406 10405 10404 10403 10402 10401 10400 10399 10398 10397 10396 10395 10394 10393 10393 10392 10391 10391
10458 10458 10457 10456 10456 10455 10455 10454 10453 10453 10452 10451 10450 10450 10449 10448 10448 10447 10446 10446 10445 10445 10444 10443 10443 10442 10441 10441 10440 10439 10439 10438 10436 10435 10434 10433 10432 10431 10431 10430 10429 10428 10426 10426 10425 10424 10423 10422 10421 10421 10420 10419 10418 10418 10417 10416 10416 10415 10414 10413 10412 10411 10410 10409 10408 10406 10406 10405 10403 10402 10401 10400 10399 10398 10397 10396 10395 10394 10393 10392 10391 10390 10390 10389 10388 10387
10452 10452 10451 10451 10451 10450 10450 10449 10448 10448 10447 10446 10446 10445 10445 10443 10443 10443 10442 10441 10441 10441 10440 10440 10438 10438 10438 10436 10436 10435 10435 10434 10433 10431 10430 10429 10428 10428 10427 10426 10425 10424 10423 10422 10421 10420 10420 10418 10418 10417 10416 10416 10415 10415 10414 10413 10412 10411 10410 10410 10408 10408 10406 10406 10405 10403 10403 10401 10400 10399 10398 10397 10396 10395 10394 10393 10392 10391 10390 10389 10388 10387 10386 10386 10385 10384
10447 10446 10446 10446 10446 10445 10444 10443 10443 10443 10442 10441 10441 10440 10440 10439 10439 10438 10438 10438 10437 10436 10436 10435 10435 10434 10433 10433 10432 10431 10431 10430 10428 10427 10426 10425 10424 10423 10423 10423 10421 10420 10419 10418 10418 10417 10416 10415 10415 10413 10413 10413 10412 10411 10411 10410 10409 10408 10407 10406 10405 10405 10403 10403 10401 10400 10400 10398 10397 10396 10395 10394 10393 10392 10391 10390 10389 10388 10387 10386 10385 10384 10383 10382 10381 10381
10441 10441 10441 10441 10440 10440 10439 10438 10438 10438 10438 10437 10436 10436 10435 10435 10435 10434 10433 10433 10433 10432 10431 10431 10430 10430 10430 10429 10428 10428 10427 10426 10425 10423 10422 10421 10420 10420 10420 10419 10418 10416 10416 10415 10415 10414 10413 10412 10411 10410 10410 10409 10408 10408 10407 10406 10406 10405 10404 10403 10402 10401 10400 10400 10398 10397 10396 10395 10394 10393 10392 10391 10390 10389 10388 10386 10386 10385 10383 10383 10381 10381 10380 10379 10378 10377
10436 10436 10436 10435 10435 10435 10434 10434 10433 10433 10433 10433 10432 10431 10431 10431 10430 10430 10429 10429 10428 10428 10427 10426 10426 10426 10425 10425 10425 10424 10423 10423 10421 10420 10419 10418 10416 10416 10416 10415 10414 10413 10412 10411 10411 10410 10410 10409 10408 10407 10406 10406 10405 10405 10404 10403 10403 10401 10401 10400 10399 10398 10397 10396 10395 10394 10393 10392 10391 10390 10389 10388 10386 10386 10385 10383 10382 10381 10380 10380 10378 10377 10376 10375 10374 10373
10431 10431 10431 10430 10430 10430 10430 10429 10429 10429 10428 10428 10428 10427 10426 10426 10426 10425 10425 10425 10424 10423 10423 10422 10421 10421 10421 10421 10421 10420 10419 10419 10418 10417 10416 10415 10413 10413 10412 10411 10411 10410 10409 10408 10408 10407 10406 10405 10405 10404 10403 10403 10402 10401 10401 10400 10400 10398 10398 10397 10396 10395 10394 10393 10392 10391 10390 10389 10388 10386 10386 10385 10383 10382 10381 10380 10379 10378 10377 10376 10375 10373 10373 10371 10370 10369
10426 10426 10426 10425 10425 10425 10425 10425 10425 10424 10424 10423 10423 10423 10423 10422 10421 10421 10421 10420 10420 10420 10418 10418 10418 10417 10416 10417 10416 10416 10415 10415 10415 10413 10412 10411 10410 10409 10409 10408 10407 10406 10405 10405 10405 10405 10403 10402 10401 10401 10400 10399 10399 10398 10398 10397 10396 10395 10395 10394 10393 10392 10391 10390 10389 10388 10386 10386 10385 10383 10382 10381 10380 10379 10378 10376 10375 10375 10373 10372 10371 10370 10368 10367 10366 10365
10421 10421 10421 10421 10421 10420 10420 10420 10420 10420 10420 10420 10419 10418 10418 10418 10418 10417 10416 10416 10416 10415 10415 10414 10413 10413 10413 10413 10412 10411 10411 10411 10410 10410 10408 10408 10406 10405 10405 10405 10404 10403 10402 10401 10401 10401 10400 10399 10398 10398 10396 10396 10395 10395 10394 10393 10393 10392 10391 10391 10390 10389 10388 10386 10385 10385 10383 10382 10381 10380 10379 10378 10376 10375 10374 10373 10372 10371 10370 10368 10367 10366 10365 10363 10362 10361
10416 10416 10416 10416 10416 10416 10416 10416 10416 10415 10415 10415 10415 10415 10415 10414 10413 10413 10413 10412 10412 10411 10411 10410 10410 10409 10409 10408 10408 10408 10407 10406 10406 10406 10405 10404 10403 10402 10401 10401 10400 10400 10398 10398 10398 10398 10396 10396 10395 10394 10393 10393 10392 10391 10391 10390 10390 10389 10388 10387 10386 10385 10385 10383 10382 10381 10380 10379 10378 10376 10375 10374 10373 10372 10371 10369 10368 10366 10365 10364 10363 10361 10360 10359 10358 10356
10412 10412 10411 10411 10411 10411 10411 10411 10411 10411 10411 10411 10411 10411 10410 10410 10410 10409 10408 10408 10408 10408 10407 10406 10406 10405 10405 10404 10404 10403 10403 10403 10402 10401 10401 10400 10399 10398 10398 10398 10397 10396 10395 10395 10394 10394 10393 10392 10391 10391 10390 10390 10388 10388 10387 10387 10386 10385 10385 10384 10383 10382 10381 10380 10379 10378 10376 10375 10374 10373 10371 10371 10370 10368 10366 10365 10364 10363 10361 10360 10359 10357 10356 10355 10353 10352
10408 10407 10407 10407 10407 10407 10407 10407 10407 10407 10407 10407 10406 10406 10406 10406 10406 10405 10405 10405 10405 10404 10403 10402 10402 10401 10401 10400 10400 10399 10399 10398 10398 10398 10398 10396 10395 10395 10395 10394 10393 10393 10392 10391 10390 10390 10390 10389 10388 10387 10386 10386 10385 10385 10384 10383 10383 10382 10381 10380 10380 10378 10378 10376 10375 10374 10373 10371 10370 10370 10368 10366 10365 10364 10363 10361 10360 10358 10357 10356 10355 10353 10351 10350 10349 10347
10403 10403 10403 10403 10403 10403 10403 10403 10403 10403 10403 10403 10403 10403 10402 10402 10402 10401 10401 10401 10400 10400 10399 10398 10398 10397 10397 10396 10395 10395 10395 10394 10394 10394 10394 10393 10391 10391 10391 10390 10390 10389 10388 10388 10386 10386 10386 10385 10385 10384 10383 10382 10381 10381 10380 10380 10379 10378 10378 10376 10376 10375 10374 10373 10371 10370 10369 10368 10366 10365 10364 10363 10361 10360 10359 10358 10356 10355 10353 10351 10350 10348 10347 10346 10344 10343
10398 10398 10398 10398 10398 10398 10398 10398 10398 10398 10399 10399 10398 10398 10398 10398 10398 10398 10397 10396 10396 10396 10395 10395 10394 10393 10393 10393 10391 10391 10390 10390 10390 10390 10390 10388 10388 10387 10387 10386 10386 10385 10385 10385 10383 10382 10381 10381 10381 10381 10380 10379 10378 10377 10376 10376 10375 10375 10373 10373 10372 10371 10370 10369 10368 10366 10365 10364 10363 10361 10360 10359 10358 10356 10355 10353 10352 10350 10349 10347 10346 10344 10343 10341 10340 10338
10394 10394 10394 10394 10395 10395 10395 10395 10395 10395 10395 10395 10395 10395 10394 10394 10394 10393 10393 10393 10393 10392 10391 10391 10390 10390 10389 10388 10388 10387 10386 10386 10386 10386 10386 10385 10383 10383 10383 10383 10381 10381 10381 10381 10380 10379 10378 10377 10377 10376 10376 10375 10375 10373 10373 10372 10371 10371 10370 10369 10368 10367 10366 10365 10364 10363 10361 10360 10359 10358 10356 10355 10353 10352 10351 10349 10348 10346 10345 10343 10341 10340 10338 10336 10335 10333
10390 10390 10390 10390 10390 10390 10390 10390 10390 10390 10390 10390 10390 10390 10390 10390 10390 10390 10390 10389 10389 10388 10388 10387 10386 10386 10385 10385 10384 10383 10383 10382 10382 10382 10381 10381 10380 10379 10379 10378 10378 10377 10376 10376 10376 10375 10375 10374 10373 10373 10372 10371 10371 10370 10369 10368 10368 10367 10366 10365 10364 10363 10362 10361 10360 10358 10357 10356 10355 10353 10352 10351 10349 10348 10346 10345 10343 10341 10340 10338 10337 10335 10333 10332 10330 10328
10386 10386 10386 10386 10386 10386 10386 10386 10386 10386 10386 10386 10386 10386 10386 10386 10386 10386 10386 10385 10385 10385 10384 10383 10383 10381 10381 10380 10380 10379 10378 10378 10378 10378 10378 10377 10376 10375 10375 10374 10373 10373 10373 10372 10371 10371 10371 10370 10370 10368 10368 10367 10366 10366 10365 10365 10364 10363 10362 10361 10360 10359 10358 10356 10355 10354 10353 10352 10351 10349 10348 10346 10345 10343 10341 10340 10338 10337 10335 10334 10332 10331 10329 10327 10325 10323
10381 10382 10382 10382 10383 10383 10383 10383 10383 10383 10383 10383 10383 10383 10383 10382 10382 10382 10381 10381 10381 10380 10380 10380 10379 10378 10377 10376 10376 10375 10374 10374 10374 10374 10373 10373 10372 10371 10370 10370 10370 10369 10368 10368 10368 10367 10366 10366 10366 10365 10364 10363 10362 10361 10361 10361 10360 10359 10358 10357 10356 10355 10353 10353 10351 10350 10348 10348 10346 10345 10343 10342 10340 10339 10337 10336 10334 10332 10331 10329 10328 10326 10324 10322 10321 10318
10378 10378 10378 10378 10379 10379 10379 10379 10379 10379 10379 10379 10379 10379 10379 10378 10378 10378 10378 10377 10377 10376 10376 10375 10375 10374 10373 10373 10371 10371 10370 10370 10370 10370 10370 10369 10368 10367 10366 10366 10365 10365 10364 10363 10363 10363 10363 10362 10361 10361 10360 10359 10358 10357 10357 10356 10356 10355 10354 10353 10352 10351 10350 10348 10347 10346 10345 10343 10341 10340 10339 10337 10336 10334 10333 10331 10330 10328 10326 10325 10323 10321 10319 10317 10315 10313
10374 10374 10375 10375 10375 10375 10375 10375 10375 10375 10375 10375 10375 10375 10375 10375 10375 10374 10373 10373 10373 10372 10371 10371 10370 10370 10370 10369 10368 10367 10366 10366 10366 10366 10365 10365 10365 10364 10363 10361 10361 10361 10360 10360 10359 10359 10358 10358 10357 10357 10356 10355 10354 10353 10352 10352 10351 10351 10350 10349 10348 10346 10345 10344 10343 10341 10340 10339 10337 10336 10335 10333 10331 10330 10328 10326 10325 10323 10321 10320 10318 10316 10315 10313 10310 10308
10370 10370 10371 10371 10371 10371 10371 10371 10371 10371 10371 10371 10371 10371 10371 10371 10370 10370 10370 10369 10368 10368 10368 10367 10366 10366 10365 10365 10364 10363 10363 10362 10361 10361 10361 10361 10360 10360 10359 10358 10357 10357 10356 10356 10355 10355 10354 10354 10353 10353 10352 10351 10350 10350 10348 10348 10347 10346 10345 10345 10344 10342 10341 10340 10338 10337 10336 10335 10333 10331 10330 10328 10326 10325 10323 10321 10320 10318 10316 10315 10313 10311 10310 10308 10305 10303
10366 10366 10367 10367 10368 10368 10368 10368 10368 10368 10368 10368 10368 10367 10367 10367 10366 10366 10366 10365 10365 10364 10363 10363 10363 10362 10361 10360 10360 10359 10358 10358 10358 10357 10357 10357 10356 10356 10355 10354 10353 10353 10353 10352 10351 10351 10350 10350 10349 10348 10348 10347 10346 10345 10345 10344 10343 10341 10341 10340 10339 10338 10336 10335 10334 10333 10331 10330 10328 10327 10325 10324 10322 10320 10319 10317 10315 10314 10312 10310 10308 10307 10305 10303 10300 10298
10363 10363 10363 10364 10364 10364 10364 10364 10364 10364 10364 10364 10363 10363 10363 10363 10363 10362 10361 10361 10361 10360 10360 10359 10358 10358 10357 10356 10356 10355 10355 10354 10353 10353 10353 10353 10352 10352 10351 10350 10350 10349 10348 10348 10347 10346 10346 10345 10345 10344 10343 10343 10342 10341 10341 10340 10339 10338 10336 10335 10333 10333 10332 10331 10330 10328 10327 10326 10324 10322 10321 10319 10318 10316 10315 10313 10311 10309 10308 10306 10304 10302 10300 10298 10296 10293
10360 10360 10360 10360 10360 10361 10360 10360 10360 10360 10360 10360 10360 10360 10359 10359 10358 10358 10357 10357 10356 10356 10355 10355 10354 10353 10353 10352 10351 10351 10350 10350 10350 10349 10349 10348 10348 10348 10347 10346 10346 10345 10344 10343 10343 10342 10341 10341 10340 10339 10339 10338 10338 10337 10336 10336 10335 10334 10332 10330 10329 10328 10327 10326 10325 10324 10323 10321 10320 10318 10316 10315 10313 10311 10310 10308 10306 10305 10303 10301 10299 10297 10295 10293 10291 10289
10356 10356 10356 10356 10356 10356 10356 10356 10356 10356 10356 10356 10356 10355 10355 10355 10354 10353 10353 10353 10352 10351 10351 10351 10350 10349 10348 10348 10347 10347 10346 10346 10345 10345 10345 10345 10344 10343 10343 10343 10341 10341 10340 10339 10338 10337 10337 10336 10335 10335 10334 10333 10333 10333 10332 10332 10331 10330 10328 10326 10325 10323 10322 10321 10321 10320 10318 10316 10315 10313 10311 10310 10308 10306 10305 10303 10301 10300 10298 10296 10295 10293 10291 10289 10286 10285
10352 10352 10353 10353 10353 10353 10353 10353 10353 10353 10353 10352 10351 10351 10351 10351 10350 10350 10349 10348 10348 10347 10346 10346 10345 10345 10344 10343 10343 10342 10342 10341 10341 10341 10340 10340 10340 10340 10339 10338 10337 10336 10336 10335 10333 10333 10332 10331 10331 10330 10329 10329 10328 10328 10328 10327 10327 10326 10324 10322 10320 10318 10317 10316 10315 10315 10313 10311 10310 10308 10307 10305 10303 10302 10300 10298 10297 10295 10293 10292 10290 10288 10286 10284 10281 10280
10348 10348 10349 10349 10349 10350 10350 10349 10349 10349 10348 10348 10348 10347 10347 10347 10346 10346 10345 10344 10343 10343 10342 10341 10341 10340 10340 10338 10338 10338 10337 10337 10337 10336 10336 10336 10335 10335 10334 10333 10333 10332 10331 10330 10329 10328 10327 10326 10326 10325 10325 10324 10323 10323 10323 10323 10322 10321 10320 10318 10316 10315 10313 10311 10311 10310 10308 10306 10305 10303 10302 10301 10299 10297 10295 10294 10292 10290 10289 10287 10285 10283 10281 10279 10277 10275
10345 10345 10345 10345 10345 10345 10345 10345 10345 10345 10345 10344 10344 10343 10343 10343 10342 10341 10341 10340 10339 10338 10338 10337 10336 10335 10335 10334 10333 10333 10333 10332 10332 10332 10332 10331 10331 10330 10330 10329 10328 10328 10327 10326 10325 10324 10323 10321 10321 10320 10320 10320 10319 10318 10318 10318 10317 10316 10315 10314 10312 10310 10309 10308 10307 10305 10303 10301 10300 10298 10297 10296 10294 10292 10290 10288 10287 10286 10284 10282 10280 10278 10276 10274 10272 10270
10340 10340 10340 10341 10341 10341 10341 10341 10341 10340 10340 10340 10339 10339 10338 10338 10338 10337 10336 10335 10335 10333 10333 10333 10332 10331 10330 10330 10329 10329 10328 10328 10328 10327 10327 10327 10326 10326 10325 10325 10324 10323 10323 10322 10321 10320 10319 10318 10316 10316 10315 10315 10314 10313 10313 10313 10312 10311 10310 10309 10308 10306 10305 10304 10303 10301 10299 10297 10295 10293 10292 10291 10289 10287 10285 10283 10282 10280 10279 10278 10276 10274 10271 10270 10267 10265
10336 10336 10336 10336 10336 10336 10336 10336 10336 10336 10335 10335 10335 10334 10334 10333 10333 10332 10331 10331 10330 10329 10328 10328 10327 10326 10325 10325 10325 10324 10323 10323 10323 10323 10323 10322 10321 10321 10321 10320 10320 10319 10318 10318 10316 10316 10315 10314 10313 10311 10311 10310 10309 10308 10308 10308 10308 10306 10305 10304 10303 10302 10300 10299 10298 10296 10295 10293 10291 10289 10288 10286 10284 10282 10280 10278 10277 10275 10274 10273 10271 10269 10267 10265 10263 10260
10331 10331 10331 10331 10331 10331 10331 10331 10331 10331 10331 10330 10330 10330 10329 10328 10328 10328 10326 10326 10325 10325 10323 10323 10322 10321 10321 10320 10320 10320 10320 10319 10318 10318 10318 10317 10317 10316 10316 10316 10315 10315 10314 10313 10312 10311 10310 10309 10308 10308 10306 10306 10305 10304 10303 10303 10303 10301 10300 10299 10298 10297 10296 10295 10293 10292 10290 10288 10286 10285 10283 10281 10279 10277 10275 10273 10271 10270 10269 10268 10266 10265 10263 10260 10258 10256
10327 10327 10327 10327 10327 10327 10326 10326 10326 10326 10326 10325 10325 10325 10324 10323 10323 10323 10321 10321 10320 10320 10319 10318 10317 10316 10316 10315 10315 10315 10315 10314 10314 10313 10313 10313 10313 10312 10311 10311 10311 10310 10309 10308 10308 10306 10305 10305 10303 10303 10303 10302 10301 10300 10298 10298 10297 10296 10295 10295 10293 10292 10291 10290 10288 10287 10286 10284 10282 10280 10278 10276 10275 10273 10271 10268 10266 10265 10263 10262 10261 10260 10258 10256 10254 10251
10323 10323 10323 10322 10322 10322 10321 10321 10321 10321 10321 10320 10320 10320 10319 10318 10318 10318 10317 10316 10315 10315 10313 10313 10312 10311 10311 10311 10310 10310 10310 10310 10309 10309 10308 10308 10308 10308 10307 10306 10306 10306 10305 10303 10303 10301 10300 10299 10298 10298 10298 10298 10297 10296 10294 10293 10292 10291 10291 10290 10289 10288 10286 10285 10283 10282 10281 10279 10277 10275 10274 10272 10270 10268 10266 10264 10261 10260 10258 10257 10256 10255 10253 10251 10250 10247
10318 10318 10318 10318 10317 10317 10316 10316 10316 10316 10316 10315 10315 10315 10314 10313 10313 10312 10311 10311 10310 10309 10308 10308 10307 10306 10306 10306 10305 10305 10305 10305 10305 10304 10304 10304 10303 10303 10303 10302 10301 10301 10300 10298 10297 10296 10295 10294 10293 10292 10292 10293 10293 10292 10290 10288 10286 10286 10285 10285 10284 10283 10281 10280 10278 10277 10276 10274 10272 10270 10269 10267 10265 10263 10261 10259 10257 10255 10253 10252 10251 10250 10248 10247 10245 10243